Location: Beddau
(51.5575°N, 3.3561°W)
Time: 12:09:39
(UTC+00:00)

SeaSat 1 - Pass Details

Date: 03 March 2021
Orbit: 744 x 747 km, 108.0° (Epoch: 16 April)

Event Time Altitude Azimuth Distance (km) Brightness Sun altitude
Rises 19:33:10 0° 31° (NNE) 3,203 5.5 -15.6°
Reaches altitude 10° 19:35:27 10° 34° (NE) 2,275 4.7 -16.0°
Maximum altitude 19:40:24 72° 119° (ESE) 788 2.3 -16.7°
Drops below altitude 10° 19:45:19 10° 204° (SSW) 2,261 5.1 -17.5°
Sets 19:47:35 0° 207° (SSW) 3,182 5.9 -17.8°
